Regional Weather Roundup
Issued by NWS

Home | Current Version | Previous Version | Text Only | Print | Product List | Glossary On
Versions: 1 2 3 4 5 6 7 8 9 10 11 12 13 14 15 16 17 18 19 20 21 22 23 24 25 26 27 28 29 30 31 32 33 34 35 36 37 38 39 40 41 42 43 44 45 46 47 48 49 50
459
ASUS44 KJAN 171803
RWRMS

MISSISSIPPI HOURLY WEATHER ROUNDUP
NATIONAL WEATHER SERVICE JACKSON MS
1200 PM CST WED DEC 17 2014

NOTE: "FAIR: INDICATES FEW OR NO CLOUDS BELOW 12,000 FEET WITH NO
SIGNIFICANT WEATHER AND/OR OBSTRUCTIONS TO VISIBILITY.

MSZ001>002-007>008-010>013-018>021-025>028-034>036-171900-
NORTHWEST MISSISSIPPI

CITY           SKY/WX    TMP DP  RH WIND       PRES   REMARKS
CLARKSDALE     FAIR      41  34  75 CALM      30.33F
CLEVELAND      FAIR      43  36  76 CALM      30.32F
GREENWOOD      FAIR      47  35  63 NW5       30.30F
6HR MIN TEMP:  29; 6HR MAX TEMP:  47;

GREENVILLE     FAIR      45  35  68 VRB5      30.30F
6HR MIN TEMP:  33; 6HR MAX TEMP:  45;

GRENADA        FAIR      45  34  65 CALM      30.30F
OLIVE BRANCH   PTSUNNY   39  36  87 CALM      30.30F
OXFORD         FAIR      43  32  65 CALM      30.30F
TUNICA         FAIR      39  34  81 NW3       30.33F
$$

MSZ003>006-009-014>017-022>024-029>033-037>039-171900-
NORTHEAST MISSISSIPPI

CITY           SKY/WX    TMP DP  RH WIND       PRES   REMARKS
COLUMBUS AFB   MOSUNNY   48  35  61 NW5       30.27F
6HR MIN TEMP:  28; 6HR MAX TEMP:  48; 6HR PCP: TRACE;

CORINTH        FAIR      45  34  65 VRB3      30.26F
GOLDN TRIANGLE MOSUNNY   48  37  66 CALM      30.27F
STARKVILLE     FAIR      46  36  66 CALM      30.27F
TUPELO         FAIR      46  34  62 NE5       30.27F
6HR MIN TEMP:  33; 6HR MAX TEMP:  47;

$$

MSZ040-058-171900-
CENTRAL MISSISSIPPI

CITY           SKY/WX    TMP DP  RH WIND       PRES   REMARKS
JACKSON INTL   PTSUNNY   52  37  56 N6        30.28F
6HR MIN TEMP:  31; 6HR MAX TEMP:  52;

JACKSON HAWKNS FAIR      51  38  60 CALM      30.28F
6HR MIN TEMP:  33; 6HR MAX TEMP:  51;

MERIDIAN KEY   FAIR      54  36  50 VRB6      30.27F
6HR MIN TEMP:  29; 6HR MAX TEMP:  54; 6HR PCP: TRACE;

MERIDIAN NAS   PTSUNNY   52  36  54 N6        30.25F
6HR MIN TEMP:  29; 6HR MAX TEMP:  52;

RAYMOND        FAIR      50  46  87 CALM      30.29F
VICKSBURG      FAIR      49  38  65 CALM      30.30F
6HR MIN TEMP:  35; 6HR MAX TEMP:  50;

$$

MSZ059>079-171900-
SOUTH MISSISSIPPI

CITY           SKY/WX    TMP DP  RH WIND       PRES   REMARKS
HATTIESBURG    FAIR      54  38  54 E3        30.28F
6HR MIN TEMP:  31; 6HR MAX TEMP:  54;

MCCOMB         FAIR      53  39  59 N5        30.26F
6HR MIN TEMP:  33; 6HR MAX TEMP:  53;

NATCHEZ        FAIR      52  37  58 NE5       30.28F
6HR MIN TEMP:  30; 6HR MAX TEMP:  52;

PINE BELT      FAIR      54  37  54 N5        30.28F
6HR MIN TEMP:  30; 6HR MAX TEMP:  54;

$$

MSZ080>082-171900-
COASTAL MISSISSIPPI

CITY           SKY/WX    TMP DP  RH WIND       PRES   REMARKS
BAY ST LOUIS   PTSUNNY   57  34  41 VRB5      30.25F
BILOXI         FAIR      57  38  48 N3        30.25F
6HR MIN TEMP:  40; 6HR MAX TEMP:  57;

PASCAGOULA     FAIR      58  38  47 N6        30.25F
6HR MIN TEMP:  30; 6HR MAX TEMP:  58;

GULFPORT       FAIR      56  37  49 CALM      30.24F
6HR MIN TEMP:  35; 6HR MAX TEMP:  57;

$$



USA.gov is the U.S. government's official web portal to all federal, state and local government web resources and services.